Weather History for Locarno-Monti, Switzerland

Change the Weather History Date:

Tuesday, November 12, 2013

  Actual Average Record
Temperature  
Mean Temperature 48 °F -  
Max Temperature 56 °F 47 °F - ()
Min Temperature 40 °F 33 °F - ()
Degree Days  
Heating Degree Days 17    
Moisture  
Dew Point 28 °F    
Average Humidity 34    
Maximum Humidity 49    
Minimum Humidity 23    
Precipitation  
Precipitation 0.00 in - - ()
Sea Level Pressure  
Sea Level Pressure 30.20 in    
Wind  
Wind Speed 2 mph ()    
Max Wind Speed 5 mph    
Max Gust Speed -    
T = Trace of Precipitation, MM = Missing Value Source: Averaged Metar Reports

Daily Weather History Graph

Daily Weather History Graph

Search for Another Location

Airport:

Trip Planner

Search our weather history database for the weather conditions in past years. The results will help you decide how hot, cold, wet, or windy it might be!

Date:

Astronomy

Nov. 12, 2013 Rise Set
Actual Time 7:21 AM CET 4:55 PM CET
Civil Twilight 6:49 AM CET 5:28 PM CET
Nautical Twilight 6:13 AM CET 6:04 PM CET
Astronomical Twilight 5:37 AM CET 6:39 PM CET
Moon 2:16 PM CET (11/12) 1:36 AM CET (11/12)
Length of Visible Light 10h 38m
Length of Day
9h 34m
Waxing Gibbous, 74% of the Moon is Illuminated
Nov 12
Waxing Gibbous
Nov 17
Full
Nov 25
Last Quarter
Dec 3
New
Dec 9
First Quarter

Hourly Weather History & Observations

Time (CET) Temp. Dew Point Humidity Pressure Visibility Wind Dir Wind Speed Gust Speed Precip Events Conditions
12:00 AM 46 °F 20 °F 23% 30.21 in - North 3.5 mph - -  
1:00 AM 45 °F 22 °F 26% 30.21 in - North 4.6 mph - -  
2:00 AM 45 °F 21 °F 25% 30.21 in - NNE 2.3 mph - -  
3:00 AM 45 °F 22 °F 27% 30.21 in - NE 2.3 mph - -  
5:00 AM 44 °F 24 °F 31% 30.23 in - NNE 2.3 mph - -  
6:00 AM 43 °F 25 °F 36% 30.24 in - NE 2.3 mph - -  
7:00 AM 42 °F 27 °F 42% 30.26 in 37 mi WSW 1.2 mph - -  
8:00 AM 43 °F 25 °F 36% 30.26 in - NNE 2.3 mph - -  
9:00 AM 45 °F 27 °F 37% 30.25 in - SSW 2.3 mph - -  
11:00 AM 49 °F 32 °F 40% 30.23 in - SSE 2.3 mph - -  
12:00 PM 53 °F 34 °F 36% 30.20 in - SSE 1.2 mph - -  
1:00 PM 53 °F 33 °F 35% 30.18 in 31 mi SE 3.5 mph - -   Clear
2:00 PM 55 °F 29 °F 25% 30.15 in - ESE 3.5 mph - -  
3:00 PM 56 °F 30 °F 25% 30.14 in - SSE 2.3 mph - -  
5:00 PM 52 °F 31 °F 33% 30.14 in - NNE 2.3 mph - -  
6:00 PM 51 °F 31 °F 35% 30.15 in - North 1.2 mph - -  
7:00 PM 51 °F 30 °F 32% 30.17 in 31 mi WNW 1.2 mph - -   Clear
8:00 PM 50 °F 31 °F 35% 30.18 in - NNW 2.3 mph - -  
9:00 PM 47 °F 33 °F 46% 30.19 in - NNE 3.5 mph - -  
11:00 PM 46 °F 33 °F 49% 30.19 in - NE 1.2 mph - -